Location: Newark
(34.4697°S, 57.8467°W)
Time: 07:48:54
(UTC+00:00)

OTV 5 (USA 277) - Visible Passes

Search period start: 20 July 2019 00:00
Search period end: 30 July 2019 00:00
Orbit: 299 x 335 km, 54.5° (Epoch: 13 July)

Date Brightness Start Highest point End Pass type
(mag) Time Alt. Az. Time Alt. Az. Time Alt. Az.
20 Jul ? 09:55:34 20° WNW 09:56:13 22° NW 09:58:20 10° N visible
24 Jul ? 22:27:41 10° NNE 22:27:42 10° NNE 22:27:42 10° NNE visible
25 Jul ? 22:41:00 10° NNW 22:42:32 27° N 22:42:32 27° N visible
26 Jul ? 22:55:34 10° WNW 22:57:17 29° W 22:57:17 29° W visible
27 Jul ? 21:36:17 10° N 21:38:39 25° NE 21:41:02 10° ESE visible
27 Jul ? 23:11:07 10° W 23:11:57 14° WSW 23:11:57 14° WSW visible
28 Jul ? 21:50:20 10° NW 21:53:08 85° SW 21:55:36 13° SE visible
29 Jul ? 22:05:22 10° W 22:07:46 25° SW 22:10:05 11° SSE visible
